Find Starlink 32524

NORAD ID: 62159 Int'l Des: 2024-224 Owner: SPXS Country: US Constellation: starlink operational
LEOCIRCULAR

現在のビュー

3D地球を読み込み中...

About Starlink 32524

Starlink 32524 (NORAD 62159) is a starlink constellation satellite (v2 mini) launched Nov 30, 2024 by SPXS of US. It operates in LEO, CIRCULAR orbit with a mass of 730.00 kg.

次回通過

Passes for default location (London). Set your location on the main map for personalized predictions.

高度履歴

Loading altitude history...

軌道要素

1 62159U 24224W 26263.95771388 .00013101 00000-0 48470-3 0 9996
2 62159 43.0002 138.8002 0001004 271.0662 89.0075 15.27583831102145
Epoch: Sep 20, 2026 • Age: 13 hours

現在のステータス

高度 482.2 km
遠地点 / 近地点 N/A
速度 7.63 km/s
衛星直下点 6.14°N, 31.62°W
打ち上げ日 Nov 30, 2024
運用期間 1.8 years
タイプ internet

技術仕様

分類 Payload
質量 730.00 kg
乾燥質量 700.00 kg
長さ 0.30 m
スパン 29.00 m
形状 ? Box + pan
製造者 SPXS
バスタイプ Starlink V2M
フェーズステータス In Orbit
所有者/国 SPXS/US

Most Searched